Overview Statistics Trail Chart Weather Telemetry Raw packets
 

This is the latest recevied weather packets stored in our database for station/object N0KWA. If no packets are shown the sender has not sent any weather packets the latest 10 day(s).

<< 69 70 71 72 73 74 75 >>
Time Temp. Humidity Pressure Rain* Wind** Luminosity Snow
1787934539 30° C 80% 1018.9 hPa 0 mm - 36 W/m² -
1787934234 30° C 82% 1018.9 hPa 0 mm - 30 W/m² -
1787933933 30° C 82% 1018.9 hPa 0 mm - 35 W/m² -
1787933627 30° C 83% 1019 hPa 0 mm - 27 W/m² -
1787933322 30° C 84% 1019 hPa 0 mm - 32 W/m² -
1787933022 29.44° C 83% 1019.2 hPa 0 mm - 254 W/m² -
1787932720 29.44° C 84% 1018.8 hPa 0 mm - 84 W/m² -
1787932414 29.44° C 86% 1019 hPa 0 mm - 52 W/m² -
1787932110 29.44° C 85% 1018.7 hPa 0 mm - 71 W/m² -
1787931808 28.89° C 85% 1018.9 hPa 0 mm - 24 W/m² -
1787931502 28.89° C 85% 1019 hPa 0 mm - 24 W/m² -
1787931197 28.89° C 86% 1018.8 hPa 0 mm - 23 W/m² -
1787930596 28.89° C 87% 1018.8 hPa 0 mm - 22 W/m² -
1787930291 28.33° C 87% 1018.9 hPa 0 mm - 22 W/m² -
1787929986 28.33° C 88% 1019 hPa 0 mm - 21 W/m² -
1787929685 28.33° C 90% 1019.1 hPa 0 mm - 21 W/m² -
1787929380 27.78° C 90% 1019 hPa 0 mm - 26 W/m² -
1787929077 27.78° C 91% 1019 hPa 0 mm - 19 W/m² -
1787928773 27.78° C 92% 1018.8 hPa 0 mm - 19 W/m² -
1787928472 27.22° C 93% 1018.9 hPa 0 mm - 21 W/m² -
1787928171 27.22° C 94% 1018.9 hPa 0 mm - 18 W/m² -
1787927870 27.22° C 93% 1018.7 hPa 0 mm - 17 W/m² -
1787927564 27.22° C 95% 1018.9 hPa 0 mm - 15 W/m² -
1787927259 26.67° C 95% 1018.8 hPa 0 mm - 15 W/m² -
1787926950 26.67° C 96% 1018.8 hPa 0 mm - 14 W/m² -

* Rain latest hour (hover to see other rain measurements)
** Current wind speed in m/s (hover to see current wind gust speed)